User: anonymous   Login
Location: Unspecified
(0.0000°N, 0.0000°E)
Time: 19:52:18
(UTC+00:00)
Language:

ORS OBJECT AA - Orbit

View from above orbital plane
View from above orbital plane
View from above satellite
View from above satellite

Ground track
Ground track

The orbit data is extracted from the following two-line orbital elements,

1 39404U 13064AA  17268.66975535  .00153555  14995-4  48715-3 0  9998
2 39404  40.4935  23.3434 0008222  55.0223 305.1381 15.90418955217173
Epoch (UTC): 25 September 2017 16:04:26
Eccentricity: 0.0008222
inclination: 40.4935°
perigee height: 295 km
apogee height: 306 km
right ascension of ascending node: 23.3434°
argument of perigee: 55.0223°
revolutions per day: 15.90418955
mean anomaly at epoch: 305.1381°
orbit number at epoch: 21717

The dashed part of the orbit path shows where the satellite is in the earth's shadow,  

DLR